Time,TemperatureF,DewpointF,PressureIn,WindDirection,WindDirectionDegrees,WindSpeedMPH,WindSpeedGustMPH,Humidity,HourlyPrecipIn,Conditions,Clouds,dailyrainin,SoftwareType,DateUTC
2013-03-18 00:00:00,31.8,13.4,30.24,North,359,2.0,6.0,46,0.00,CLR,,0.00,WeatherDisplay:10.37,2013-03-18 04:00:00,
2013-03-18 00:05:00,31.8,13.4,30.24,North,0,3.0,5.0,46,0.00,CLR,,0.00,WeatherDisplay:10.37,2013-03-18 04:05:00,
2013-03-18 00:10:00,31.6,12.7,30.24,North,2,1.0,5.0,45,0.00,CLR,,0.00,WeatherDisplay:10.37,2013-03-18 04:10:00,
2013-03-18 00:15:00,31.5,13.0,30.24,North,0,2.0,6.0,46,0.00,CLR,,0.00,WeatherDisplay:10.37,2013-03-18 04:15:00,
2013-03-18 00:20:00,31.3,12.4,30.24,North,351,1.0,4.0,45,0.00,CLR,,0.00,WeatherDisplay:10.37,2013-03-18 04:20:00,
2013-03-18 00:25:00,31.2,12.7,30.25,North,1,2.0,5.0,46,0.00,CLR,,0.00,WeatherDisplay:10.37,2013-03-18 04:25:00,
2013-03-18 00:30:00,31.1,12.7,30.24,NNW,347,1.0,4.0,46,0.00,CLR,,0.00,WeatherDisplay:10.37,2013-03-18 04:30:00,
2013-03-18 00:36:00,30.9,12.5,30.25,North,349,1.0,3.0,46,0.00,CLR,,0.00,WeatherDisplay:10.37,2013-03-18 04:36:00,
2013-03-18 00:41:00,30.9,12.5,30.24,North,2,2.0,4.0,46,0.00,CLR,,0.00,WeatherDisplay:10.37,2013-03-18 04:41:00,
2013-03-18 00:46:00,30.7,12.4,30.25,North,355,1.0,4.0,46,0.00,CLR,,0.00,WeatherDisplay:10.37,2013-03-18 04:46:00,
2013-03-18 01:06:00,30.4,12.0,30.25,North,355,1.0,5.0,46,0.00,CLR,,0.00,WeatherDisplay:10.37,2013-03-18 05:06:00,
2013-03-18 01:21:00,30.2,11.9,30.24,North,353,2.0,4.0,46,0.00,CLR,,0.00,WeatherDisplay:10.37,2013-03-18 05:21:00,
2013-03-18 01:26:00,30.2,11.9,30.25,North,354,3.0,6.0,46,0.00,CLR,,0.00,WeatherDisplay:10.37,2013-03-18 05:26:00,
2013-03-18 01:31:00,30.0,12.2,30.24,NNE,26,2.0,4.0,47,0.00,CLR,,0.00,WeatherDisplay:10.37,2013-03-18 05:31:00,
2013-03-18 01:36:00,29.8,12.0,30.24,North,11,2.0,5.0,47,0.00,CLR,,0.00,WeatherDisplay:10.37,2013-03-18 05:36:00,
2013-03-18 01:41:00,29.7,11.9,30.24,North,8,2.0,5.0,47,0.00,CLR,,0.00,WeatherDisplay:10.37,2013-03-18 05:41:00,
2013-03-18 01:46:00,29.7,11.9,30.25,NE,35,2.0,5.0,47,0.00,CLR,,0.00,WeatherDisplay:10.37,2013-03-18 05:46:00,
2013-03-18 01:51:00,29.5,12.2,30.25,NE,43,2.0,4.0,48,0.00,CLR,,0.00,WeatherDisplay:10.37,2013-03-18 05:51:00,
2013-03-18 01:56:00,29.3,12.0,30.25,NNE,29,1.0,5.0,48,0.00,CLR,,0.00,WeatherDisplay:10.37,2013-03-18 05:56:00,
2013-03-18 02:05:00,29.3,12.0,30.25,NE,44,2.0,3.0,48,0.00,CLR,,0.00,WeatherDisplay:10.37,2013-03-18 06:05:00,
2013-03-18 02:10:00,28.9,12.1,30.24,NE,35,3.0,5.0,49,0.00,CLR,,0.00,WeatherDisplay:10.37,2013-03-18 06:10:00,
2013-03-18 02:15:00,28.8,11.5,30.25,NNE,30,3.0,6.0,48,0.00,CLR,,0.00,WeatherDisplay:10.37,2013-03-18 06:15:00,
2013-03-18 02:20:00,28.8,11.5,30.25,NE,41,3.0,5.0,48,0.00,CLR,,0.00,WeatherDisplay:10.37,2013-03-18 06:20:00,
2013-03-18 02:25:00,28.6,11.4,30.26,NE,35,3.0,6.0,48,0.00,CLR,,0.00,WeatherDisplay:10.37,2013-03-18 06:25:00,
2013-03-18 02:30:00,28.6,11.3,30.26,NNE,28,3.0,6.0,48,0.00,CLR,,0.00,WeatherDisplay:10.37,2013-03-18 06:30:00,
2013-03-18 02:35:00,28.6,11.3,30.26,NE,40,3.0,7.0,48,0.00,CLR,,0.00,WeatherDisplay:10.37,2013-03-18 06:35:00,
2013-03-18 02:40:00,37.0,21.0,30.26,ENE,76,7.0,8.0,52,0.00,CLR,,0.00,WeatherDisplay:10.37,2013-03-18 06:40:00,
2013-03-18 02:41:00,28.6,11.3,30.26,NE,39,2.0,6.0,48,0.00,CLR,,0.00,WeatherDisplay:10.37,2013-03-18 06:41:00,
2013-03-18 02:45:00,36.7,21.1,30.25,ENE,61,6.0,9.0,53,0.00,CLR,,0.00,WeatherDisplay:10.37,2013-03-18 06:45:00,
2013-03-18 02:46:00,28.4,11.2,30.26,NNE,20,3.0,6.0,48,0.00,CLR,,0.00,WeatherDisplay:10.37,2013-03-18 06:46:00,
2013-03-18 02:50:00,36.1,20.6,30.25,NE,47,3.0,9.0,53,0.00,CLR,,0.00,WeatherDisplay:10.37,2013-03-18 06:50:00,
2013-03-18 02:51:00,28.4,11.2,30.26,NNE,20,3.0,6.0,48,0.00,CLR,,0.00,WeatherDisplay:10.37,2013-03-18 06:51:00,
2013-03-18 02:55:00,36.1,21.1,30.25,ENE,66,6.0,8.0,54,0.00,CLR,,0.00,WeatherDisplay:10.37,2013-03-18 06:55:00,
2013-03-18 02:56:00,28.4,11.2,30.27,NNE,17,3.0,6.0,48,0.00,CLR,,0.00,WeatherDisplay:10.37,2013-03-18 06:56:00,
2013-03-18 03:00:00,36.0,20.9,30.25,East,90,7.0,10.0,54,0.00,CLR,,0.00,WeatherDisplay:10.37,2013-03-18 07:00:00,
2013-03-18 03:01:00,28.4,11.2,30.27,North,11,2.0,6.0,48,0.00,CLR,,0.00,WeatherDisplay:10.37,2013-03-18 07:01:00,
2013-03-18 03:05:00,36.0,20.9,30.25,East,90,6.0,12.0,54,0.00,CLR,,0.00,WeatherDisplay:10.37,2013-03-18 07:05:00,
2013-03-18 03:10:00,35.6,20.6,30.25,East,90,3.0,12.0,54,0.00,CLR,,0.00,WeatherDisplay:10.37,2013-03-18 07:10:00,
2013-03-18 03:15:00,35.8,21.2,30.24,East,85,6.0,8.0,55,0.00,CLR,,0.00,WeatherDisplay:10.37,2013-03-18 07:15:00,
2013-03-18 03:20:00,35.8,20.7,30.23,NE,56,3.0,8.0,54,0.00,CLR,,0.00,WeatherDisplay:10.37,2013-03-18 07:20:00,
2013-03-18 03:25:00,35.6,20.6,30.23,NNE,29,3.0,7.0,54,0.00,CLR,,0.00,WeatherDisplay:10.37,2013-03-18 07:25:00,
2013-03-18 03:30:00,35.6,20.6,30.22,NE,51,3.0,7.0,54,0.00,CLR,,0.00,WeatherDisplay:10.37,2013-03-18 07:30:00,
2013-03-18 03:31:00,28.2,9.1,30.28,NNE,15,3.0,7.0,44,0.00,CLR,,0.00,WeatherDisplay:10.37,2013-03-18 07:31:00,
2013-03-18 03:35:00,35.4,20.8,30.22,ENE,70,5.0,8.0,55,0.00,CLR,,0.00,WeatherDisplay:10.37,2013-03-18 07:35:00,
2013-03-18 03:36:00,28.0,8.9,30.28,NNE,15,2.0,6.0,44,0.00,CLR,,0.00,WeatherDisplay:10.37,2013-03-18 07:36:00,
2013-03-18 03:40:00,35.2,21.1,30.22,ENE,71,5.0,8.0,56,0.00,CLR,,0.00,WeatherDisplay:10.37,2013-03-18 07:40:00,
2013-03-18 03:41:00,28.0,8.9,30.28,NNE,16,2.0,5.0,44,0.00,CLR,,0.00,WeatherDisplay:10.37,2013-03-18 07:41:00,
2013-03-18 03:45:00,35.2,21.1,30.22,ENE,65,3.0,5.0,56,0.00,CLR,,0.00,WeatherDisplay:10.37,2013-03-18 07:45:00,
2013-03-18 03:46:00,27.9,8.7,30.28,NNE,13,5.0,7.0,44,0.00,CLR,,0.00,WeatherDisplay:10.37,2013-03-18 07:46:00,
2013-03-18 03:50:00,35.4,21.3,30.22,NE,54,6.0,8.0,56,0.00,CLR,,0.00,WeatherDisplay:10.37,2013-03-18 07:50:00,
2013-03-18 03:51:00,27.9,8.7,30.28,North,9,2.0,7.0,44,0.00,CLR,,0.00,WeatherDisplay:10.37,2013-03-18 07:51:00,
2013-03-18 03:55:00,35.2,21.1,30.22,ENE,59,5.0,8.0,56,0.00,CLR,,0.00,WeatherDisplay:10.37,2013-03-18 07:55:00,
2013-03-18 04:00:00,27.7,8.6,30.28,NNE,27,3.0,6.0,44,0.00,CLR,,0.00,WeatherDisplay:10.37,2013-03-18 08:00:00,
2013-03-18 04:05:00,27.7,8.6,30.28,ENE,68,3.0,5.0,44,0.00,CLR,,0.00,WeatherDisplay:10.37,2013-03-18 08:05:00,
2013-03-18 04:10:00,27.7,8.6,30.28,ENE,62,5.0,8.0,44,0.00,CLR,,0.00,WeatherDisplay:10.37,2013-03-18 08:10:00,
2013-03-18 04:15:00,27.5,8.4,30.28,NE,39,3.0,8.0,44,0.00,CLR,,0.00,WeatherDisplay:10.37,2013-03-18 08:15:00,
2013-03-18 04:20:00,27.5,8.4,30.28,NE,35,3.0,6.0,44,0.00,CLR,,0.00,WeatherDisplay:10.37,2013-03-18 08:20:00,
2013-03-18 04:25:00,27.5,8.4,30.28,NE,34,3.0,7.0,44,0.00,CLR,,0.00,WeatherDisplay:10.37,2013-03-18 08:25:00,
2013-03-18 04:30:00,27.3,8.2,30.28,NNE,29,5.0,8.0,44,0.00,CLR,,0.00,WeatherDisplay:10.37,2013-03-18 08:30:00,
2013-03-18 04:35:00,34.3,21.9,30.19,ENE,67,3.0,8.0,60,0.00,CLR,,0.00,WeatherDisplay:10.37,2013-03-18 08:35:00,
2013-03-18 04:36:00,27.3,8.2,30.28,NE,44,3.0,8.0,44,0.00,CLR,,0.00,WeatherDisplay:10.37,2013-03-18 08:36:00,
2013-03-18 04:40:00,34.3,21.9,30.19,ENE,58,5.0,7.0,60,0.00,CLR,,0.00,WeatherDisplay:10.37,2013-03-18 08:40:00,
2013-03-18 04:41:00,27.3,8.7,30.28,NE,37,3.0,8.0,45,0.00,CLR,,0.00,WeatherDisplay:10.37,2013-03-18 08:41:00,
2013-03-18 04:46:00,27.1,8.6,30.28,NE,37,5.0,10.0,45,0.00,CLR,,0.00,WeatherDisplay:10.37,2013-03-18 08:46:00,
2013-03-18 04:50:00,34.5,22.1,30.19,SE,126,6.0,8.0,60,0.00,CLR,,0.00,WeatherDisplay:10.37,2013-03-18 08:50:00,
2013-03-18 04:55:00,34.3,21.9,30.18,ENE,67,5.0,8.0,60,0.00,CLR,,0.00,WeatherDisplay:10.37,2013-03-18 08:55:00,
2013-03-18 05:01:00,27.1,8.1,30.29,NE,37,5.0,9.0,44,0.00,CLR,,0.00,WeatherDisplay:10.37,2013-03-18 09:01:00,
2013-03-18 05:05:00,34.3,21.9,30.17,NE,50,3.0,9.0,60,0.00,CLR,,0.00,WeatherDisplay:10.37,2013-03-18 09:05:00,
2013-03-18 05:10:00,34.3,21.9,30.18,East,84,5.0,8.0,60,0.00,CLR,,0.00,WeatherDisplay:10.37,2013-03-18 09:10:00,
2013-03-18 05:11:00,26.9,7.9,30.29,NNE,33,5.0,9.0,44,0.00,CLR,,0.00,WeatherDisplay:10.37,2013-03-18 09:11:00,
2013-03-18 05:15:00,34.3,21.9,30.18,East,101,6.0,8.0,60,0.00,CLR,,0.00,WeatherDisplay:10.37,2013-03-18 09:15:00,
2013-03-18 05:20:00,34.2,21.7,30.18,ENE,65,3.0,8.0,60,0.00,CLR,,0.00,WeatherDisplay:10.37,2013-03-18 09:20:00,
2013-03-18 05:21:00,26.6,7.6,30.29,NE,41,7.0,11.0,44,0.00,CLR,,0.00,WeatherDisplay:10.37,2013-03-18 09:21:00,
2013-03-18 05:25:00,34.2,22.1,30.18,ENE,62,3.0,5.0,61,0.00,CLR,,0.00,WeatherDisplay:10.37,2013-03-18 09:25:00,
2013-03-18 05:26:00,26.6,7.6,30.29,ENE,58,6.0,11.0,44,0.00,CLR,,0.00,WeatherDisplay:10.37,2013-03-18 09:26:00,
2013-03-18 05:30:00,34.2,22.1,30.18,ENE,68,3.0,5.0,61,0.00,CLR,,0.00,WeatherDisplay:10.37,2013-03-18 09:30:00,
2013-03-18 05:31:00,26.6,7.6,30.29,NE,50,5.0,10.0,44,0.00,CLR,,0.00,WeatherDisplay:10.37,2013-03-18 09:31:00,
2013-03-18 05:35:00,34.0,22.3,30.18,ENE,69,1.0,5.0,62,0.00,CLR,,0.00,WeatherDisplay:10.37,2013-03-18 09:35:00,
2013-03-18 05:40:00,34.0,22.3,30.18,ENE,74,1.0,4.0,62,0.00,CLR,,0.00,WeatherDisplay:10.37,2013-03-18 09:40:00,
2013-03-18 05:41:00,26.4,7.9,30.29,NNE,27,3.0,9.0,45,0.00,CLR,,0.00,WeatherDisplay:10.37,2013-03-18 09:41:00,
2013-03-18 05:45:00,34.0,22.3,30.17,ENE,69,3.0,4.0,62,0.00,CLR,,0.00,WeatherDisplay:10.37,2013-03-18 09:45:00,
2013-03-18 05:46:00,26.4,7.9,30.30,NE,37,6.0,9.0,45,0.00,CLR,,0.00,WeatherDisplay:10.37,2013-03-18 09:46:00,
2013-03-18 05:50:00,34.0,22.3,30.17,East,90,6.0,8.0,62,0.00,CLR,,0.00,WeatherDisplay:10.37,2013-03-18 09:50:00,
2013-03-18 05:55:00,33.8,22.1,30.17,East,87,3.0,8.0,62,0.00,CLR,,0.00,WeatherDisplay:10.37,2013-03-18 09:55:00,
2013-03-18 05:56:00,26.4,7.9,30.30,NE,41,3.0,7.0,45,0.00,CLR,,0.00,WeatherDisplay:10.37,2013-03-18 09:56:00,
2013-03-18 06:00:00,33.8,22.5,30.16,ENE,69,3.0,5.0,63,0.00,CLR,,0.00,WeatherDisplay:10.37,2013-03-18 10:00:00,
2013-03-18 06:05:00,26.4,7.9,30.31,NE,47,7.0,9.0,45,0.00,CLR,,0.00,WeatherDisplay:10.37,2013-03-18 10:05:00,
2013-03-18 06:10:00,26.4,7.9,30.31,NE,45,3.0,9.0,45,0.00,CLR,,0.00,WeatherDisplay:10.37,2013-03-18 10:10:00,
2013-03-18 06:15:00,26.4,7.9,30.31,NE,54,3.0,10.0,45,0.00,CLR,,0.00,WeatherDisplay:10.37,2013-03-18 10:15:00,
2013-03-18 06:20:00,26.6,7.6,30.31,NE,47,5.0,6.0,44,0.00,CLR,,0.00,WeatherDisplay:10.37,2013-03-18 10:20:00,
2013-03-18 06:25:00,26.6,7.6,30.30,NE,41,5.0,8.0,44,0.00,CLR,,0.00,WeatherDisplay:10.37,2013-03-18 10:25:00,
2013-03-18 06:30:00,26.6,7.6,30.31,ENE,58,5.0,8.0,44,0.00,CLR,,0.00,WeatherDisplay:10.37,2013-03-18 10:30:00,
2013-03-18 06:35:00,26.6,7.1,30.31,ENE,61,5.0,8.0,43,0.00,CLR,,0.00,WeatherDisplay:10.37,2013-03-18 10:35:00,
2013-03-18 06:40:00,26.6,7.1,30.31,NE,55,6.0,9.0,43,0.00,CLR,,0.00,WeatherDisplay:10.37,2013-03-18 10:40:00,
2013-03-18 06:45:00,26.6,7.1,30.31,ENE,66,3.0,10.0,43,0.00,CLR,,0.00,WeatherDisplay:10.37,2013-03-18 10:45:00,
2013-03-18 06:50:00,32.5,24.8,30.13,NE,49,6.0,8.0,73,0.00,CLR,,0.00,WeatherDisplay:10.37,2013-03-18 10:50:00,
2013-03-18 06:51:00,26.6,7.1,30.31,ENE,61,5.0,7.0,43,0.00,CLR,,0.00,WeatherDisplay:10.37,2013-03-18 10:51:00,
2013-03-18 06:56:00,26.6,7.1,30.31,NE,47,5.0,9.0,43,0.00,CLR,,0.00,WeatherDisplay:10.37,2013-03-18 10:56:00,
2013-03-18 07:01:00,26.6,7.1,30.31,NE,49,5.0,8.0,43,0.00,CLR,,0.00,WeatherDisplay:10.37,2013-03-18 11:01:00,
2013-03-18 07:06:00,26.6,7.1,30.32,NE,51,3.0,8.0,43,0.00,CLR,,0.00,WeatherDisplay:10.37,2013-03-18 11:06:00,
2013-03-18 07:11:00,26.6,7.1,30.32,NE,41,6.0,9.0,43,0.00,CLR,,0.00,WeatherDisplay:10.37,2013-03-18 11:11:00,
2013-03-18 07:16:00,26.6,7.1,30.32,NE,42,6.0,10.0,43,0.00,CLR,,0.00,WeatherDisplay:10.37,2013-03-18 11:16:00,
2013-03-18 07:26:00,26.8,6.7,30.32,ENE,67,5.0,10.0,42,0.00,CLR,,0.00,WeatherDisplay:10.37,2013-03-18 11:26:00,
2013-03-18 07:31:00,26.8,7.2,30.32,NE,56,5.0,14.0,43,0.00,CLR,,0.00,WeatherDisplay:10.37,2013-03-18 11:31:00,
2013-03-18 07:46:00,27.0,7.4,30.31,NE,35,5.0,8.0,43,0.00,CLR,,0.00,WeatherDisplay:10.37,2013-03-18 11:46:00,
2013-03-18 07:56:00,27.1,7.6,30.31,ENE,59,5.0,8.0,43,0.00,CLR,,0.00,WeatherDisplay:10.37,2013-03-18 11:56:00,
2013-03-18 08:01:00,27.1,7.6,30.32,ENE,60,3.0,8.0,43,0.00,CLR,,0.00,WeatherDisplay:10.37,2013-03-18 12:01:00,
2013-03-18 08:06:00,27.3,7.7,30.31,ENE,69,6.0,9.0,43,0.00,CLR,,0.00,WeatherDisplay:10.37,2013-03-18 12:06:00,
2013-03-18 08:16:00,27.5,7.4,30.31,NE,52,3.0,10.0,42,0.00,CLR,,0.00,WeatherDisplay:10.37,2013-03-18 12:16:00,
2013-03-18 08:21:00,27.7,8.1,30.32,ENE,58,5.0,8.0,43,0.00,CLR,,0.00,WeatherDisplay:10.37,2013-03-18 12:21:00,
2013-03-18 08:31:00,28.1,7.9,30.31,NE,55,6.0,9.0,42,0.00,CLR,,0.00,WeatherDisplay:10.37,2013-03-18 12:31:00,
2013-03-18 08:36:00,28.2,8.0,30.31,ENE,74,3.0,8.0,42,0.00,CLR,,0.00,WeatherDisplay:10.37,2013-03-18 12:36:00,
2013-03-18 08:41:00,28.4,10.2,30.32,ENE,70,8.0,13.0,46,0.00,CLR,,0.00,WeatherDisplay:10.37,2013-03-18 12:41:00,
2013-03-18 08:46:00,28.4,10.2,30.32,NE,37,5.0,10.0,46,0.00,CLR,,0.00,WeatherDisplay:10.37,2013-03-18 12:46:00,
2013-03-18 08:51:00,28.6,10.4,30.31,NNE,27,3.0,9.0,46,0.00,CLR,,0.00,WeatherDisplay:10.37,2013-03-18 12:51:00,
2013-03-18 08:56:00,28.8,10.6,30.31,NE,47,6.0,11.0,46,0.00,CLR,,0.00,WeatherDisplay:10.37,2013-03-18 12:56:00,
2013-03-18 09:01:00,28.9,10.7,30.31,ENE,63,3.0,8.0,46,0.00,CLR,,0.00,WeatherDisplay:10.37,2013-03-18 13:01:00,
2013-03-18 09:11:00,29.1,10.9,30.32,ENE,63,3.0,10.0,46,0.00,CLR,,0.00,WeatherDisplay:10.37,2013-03-18 13:11:00,
2013-03-18 09:16:00,29.5,11.2,30.32,ENE,66,1.0,6.0,46,0.00,CLR,,0.00,WeatherDisplay:10.37,2013-03-18 13:16:00,
2013-03-18 09:21:00,29.8,12.0,30.32,NNE,25,3.0,6.0,47,0.00,CLR,,0.00,WeatherDisplay:10.37,2013-03-18 13:21:00,
2013-03-18 09:26:00,30.1,11.8,30.33,NNE,19,2.0,6.0,46,0.00,CLR,,0.00,WeatherDisplay:10.37,2013-03-18 13:26:00,
2013-03-18 09:31:00,30.4,12.1,30.33,NE,51,2.0,6.0,46,0.00,CLR,,0.00,WeatherDisplay:10.37,2013-03-18 13:31:00,
2013-03-18 09:41:00,31.1,12.7,30.33,ENE,68,2.0,5.0,46,0.00,CLR,,0.00,WeatherDisplay:10.37,2013-03-18 13:41:00,
2013-03-18 09:46:00,31.5,13.0,30.33,ENE,71,2.0,7.0,46,0.00,CLR,,0.00,WeatherDisplay:10.37,2013-03-18 13:46:00,
2013-03-18 09:52:00,31.7,12.8,30.33,ENE,77,2.0,7.0,45,0.00,CLR,,0.00,WeatherDisplay:10.37,2013-03-18 13:52:00,
2013-03-18 09:57:00,32.0,12.5,30.32,East,91,3.0,7.0,44,0.00,CLR,,0.00,WeatherDisplay:10.37,2013-03-18 13:57:00,
2013-03-18 10:05:00,32.5,13.0,30.31,ENE,76,5.0,9.0,44,0.00,CLR,,0.00,WeatherDisplay:10.37,2013-03-18 14:05:00,
2013-03-18 10:10:00,32.8,13.2,30.31,ENE,58,6.0,8.0,44,0.00,CLR,,0.00,WeatherDisplay:10.37,2013-03-18 14:10:00,
2013-03-18 10:15:00,32.9,13.3,30.31,NE,44,3.0,8.0,44,0.00,CLR,,0.00,WeatherDisplay:10.37,2013-03-18 14:15:00,
2013-03-18 10:21:00,33.1,13.5,30.31,NE,49,5.0,9.0,44,0.00,CLR,,0.00,WeatherDisplay:10.37,2013-03-18 14:21:00,
2013-03-18 10:26:00,33.4,14.3,30.30,NE,47,3.0,11.0,45,0.00,CLR,,0.00,WeatherDisplay:10.37,2013-03-18 14:26:00,
2013-03-18 10:31:00,33.8,14.2,30.31,NE,50,5.0,10.0,44,0.00,CLR,,0.00,WeatherDisplay:10.37,2013-03-18 14:31:00,
2013-03-18 10:36:00,34.2,14.5,30.31,ENE,66,5.0,8.0,44,0.00,CLR,,0.00,WeatherDisplay:10.37,2013-03-18 14:36:00,
2013-03-18 10:46:00,34.9,15.1,30.30,ENE,71,5.0,9.0,44,0.00,CLR,,0.00,WeatherDisplay:10.37,2013-03-18 14:46:00,
2013-03-18 10:51:00,35.2,15.5,30.29,East,83,3.0,9.0,44,0.00,CLR,,0.00,WeatherDisplay:10.37,2013-03-18 14:51:00,
2013-03-18 11:06:00,36.0,16.2,30.29,ENE,70,5.0,9.0,44,0.00,CLR,,0.00,WeatherDisplay:10.37,2013-03-18 15:06:00,
2013-03-18 11:16:00,36.3,16.5,30.29,ENE,60,3.0,11.0,44,0.00,CLR,,0.00,WeatherDisplay:10.37,2013-03-18 15:16:00,
2013-03-18 11:21:00,36.3,16.5,30.29,NE,47,3.0,10.0,44,0.00,CLR,,0.00,WeatherDisplay:10.37,2013-03-18 15:21:00,
2013-03-18 11:26:00,36.5,17.1,30.28,ENE,64,6.0,11.0,45,0.00,CLR,,0.00,WeatherDisplay:10.37,2013-03-18 15:26:00,
2013-03-18 11:36:00,36.3,17.0,30.28,East,97,6.0,11.0,45,0.00,CLR,,0.00,WeatherDisplay:10.37,2013-03-18 15:36:00,
2013-03-18 11:41:00,36.3,17.0,30.28,East,96,2.0,8.0,45,0.00,CLR,,0.00,WeatherDisplay:10.37,2013-03-18 15:41:00,
2013-03-18 11:46:00,36.3,17.5,30.28,East,92,5.0,9.0,46,0.00,CLR,,0.00,WeatherDisplay:10.37,2013-03-18 15:46:00,
2013-03-18 11:51:00,36.3,17.5,30.28,ENE,71,5.0,10.0,46,0.00,CLR,,0.00,WeatherDisplay:10.37,2013-03-18 15:51:00,
2013-03-18 11:56:00,36.3,18.0,30.28,ENE,77,5.0,8.0,47,0.00,CLR,,0.00,WeatherDisplay:10.37,2013-03-18 15:56:00,
2013-03-18 12:01:00,36.5,18.1,30.27,East,90,7.0,10.0,47,0.00,CLR,,0.00,WeatherDisplay:10.37,2013-03-18 16:01:00,
2013-03-18 12:10:00,36.9,19.5,30.27,ENE,71,3.0,8.0,49,0.00,OVC,,0.00,WeatherDisplay:10.37,2013-03-18 16:10:00,
2013-03-18 12:15:00,37.0,19.6,30.27,East,87,2.0,11.0,49,0.00,OVC,,0.00,WeatherDisplay:10.37,2013-03-18 16:15:00,
2013-03-18 12:20:00,37.2,20.3,30.26,East,90,7.0,11.0,50,0.00,OVC,,0.00,WeatherDisplay:10.37,2013-03-18 16:20:00,
2013-03-18 12:26:00,37.4,22.7,30.27,East,79,6.0,15.0,55,0.00,OVC,,0.00,WeatherDisplay:10.37,2013-03-18 16:26:00,
2013-03-18 12:31:00,37.4,22.7,30.26,ENE,73,6.0,14.0,55,0.00,OVC,,0.00,WeatherDisplay:10.37,2013-03-18 16:31:00,
2013-03-18 12:40:00,37.4,23.1,30.26,East,81,7.0,14.0,56,0.00,OVC,,0.00,WeatherDisplay:10.37,2013-03-18 16:40:00,
2013-03-18 17:00:00,32.4,24.7,30.12,ENE,75,8.0,14.0,73,0.00,OVC,,0.00,WeatherDisplay:10.37,2013-03-18 21:00:00,
2013-03-18 17:05:00,32.4,25.0,30.13,East,85,6.0,17.0,74,0.00,OVC,,0.00,WeatherDisplay:10.37,2013-03-18 21:05:00,
2013-03-18 17:10:00,32.2,24.8,30.13,East,97,6.0,12.0,74,0.00,OVC,,0.00,WeatherDisplay:10.37,2013-03-18 21:10:00,
2013-03-18 17:15:00,32.2,25.1,30.13,East,82,6.0,13.0,75,0.00,OVC,,0.00,WeatherDisplay:10.37,2013-03-18 21:15:00,
2013-03-18 17:20:00,32.2,25.1,30.13,NE,55,8.0,16.0,75,0.00,OVC,,0.00,WeatherDisplay:10.37,2013-03-18 21:20:00,
2013-03-18 17:25:00,32.1,25.4,30.13,NE,48,6.0,10.0,76,0.00,OVC,,0.00,WeatherDisplay:10.37,2013-03-18 21:25:00,
2013-03-18 17:30:00,32.0,25.3,30.13,NE,46,5.0,10.0,76,0.00,OVC,,0.00,WeatherDisplay:10.37,2013-03-18 21:30:00,
2013-03-18 17:35:00,32.0,25.3,30.13,NNE,31,3.0,9.0,76,0.00,OVC,,0.00,WeatherDisplay:10.37,2013-03-18 21:35:00,
2013-03-18 17:40:00,31.6,25.3,30.12,NE,47,6.0,9.0,77,0.00,OVC,,0.00,WeatherDisplay:10.37,2013-03-18 21:40:00,
2013-03-18 17:45:00,31.5,25.4,30.12,NE,55,3.0,8.0,78,0.00,OVC,,0.00,WeatherDisplay:10.37,2013-03-18 21:45:00,
2013-03-18 17:50:00,31.3,25.2,30.10,ENE,57,7.0,11.0,78,0.00,OVC,,0.00,WeatherDisplay:10.37,2013-03-18 21:50:00,
2013-03-18 17:55:00,31.1,25.0,30.09,East,82,8.0,13.0,78,0.00,OVC,,0.00,WeatherDisplay:10.37,2013-03-18 21:55:00,
2013-03-18 18:00:00,30.9,25.5,30.06,East,80,10.0,17.0,80,0.00,OVC,,0.00,WeatherDisplay:10.37,2013-03-18 22:00:00,
2013-03-18 18:05:00,30.7,25.3,30.06,ENE,62,7.0,17.0,80,0.00,-SN,,0.00,WeatherDisplay:10.37,2013-03-18 22:05:00,
2013-03-18 18:10:00,30.7,25.6,30.06,ENE,66,6.0,14.0,81,0.00,-SN,,0.00,WeatherDisplay:10.37,2013-03-18 22:10:00,
2013-03-18 18:15:00,30.7,25.9,30.07,ENE,64,5.0,12.0,82,0.00,-SN,,0.00,WeatherDisplay:10.37,2013-03-18 22:15:00,
2013-03-18 18:20:00,30.7,26.2,30.07,ENE,62,5.0,9.0,83,0.00,-SN,,0.00,WeatherDisplay:10.37,2013-03-18 22:20:00,
2013-03-18 18:25:00,30.9,26.7,30.07,NE,54,5.0,9.0,84,0.00,-SN,,0.00,WeatherDisplay:10.37,2013-03-18 22:25:00,
2013-03-18 18:30:00,30.9,26.7,30.07,NE,49,5.0,12.0,84,0.00,-SN,,0.00,WeatherDisplay:10.37,2013-03-18 22:30:00,
2013-03-18 18:35:00,31.1,26.8,30.06,NE,50,5.0,12.0,84,0.00,-SN,,0.00,WeatherDisplay:10.37,2013-03-18 22:35:00,
2013-03-18 18:40:00,31.1,26.8,30.07,ENE,63,6.0,12.0,84,0.00,-SN,,0.00,WeatherDisplay:10.37,2013-03-18 22:40:00,
2013-03-18 18:45:00,31.1,26.8,30.07,East,82,5.0,13.0,84,0.00,-SN,,0.00,WeatherDisplay:10.37,2013-03-18 22:45:00,
2013-03-18 18:50:00,31.3,27.3,30.07,ENE,61,7.0,11.0,85,0.00,-SN,,0.00,WeatherDisplay:10.37,2013-03-18 22:50:00,
2013-03-18 18:55:00,31.3,27.3,30.07,NE,51,6.0,13.0,85,0.00,-SN,,0.00,WeatherDisplay:10.37,2013-03-18 22:55:00,
2013-03-18 19:00:00,31.3,27.3,30.07,NE,54,6.0,12.0,85,0.00,-SN,,0.00,WeatherDisplay:10.37,2013-03-18 23:00:00,
2013-03-18 19:06:00,31.3,27.3,30.07,NE,55,6.0,10.0,85,0.00,-SN,,0.00,WeatherDisplay:10.37,2013-03-18 23:06:00,
2013-03-18 19:11:00,31.3,27.6,30.07,ENE,58,3.0,8.0,86,0.00,-SN,,0.00,WeatherDisplay:10.37,2013-03-18 23:11:00,
2013-03-18 19:16:00,31.3,27.6,30.07,ENE,57,5.0,10.0,86,0.00,-SN,,0.00,WeatherDisplay:10.37,2013-03-18 23:16:00,
2013-03-18 19:26:00,31.5,27.8,30.06,ENE,72,5.0,10.0,86,0.00,-SN,,0.00,WeatherDisplay:10.37,2013-03-18 23:26:00,
2013-03-18 19:31:00,31.5,27.8,30.06,ENE,73,5.0,10.0,86,0.00,-SN,,0.00,WeatherDisplay:10.37,2013-03-18 23:31:00,
2013-03-18 19:41:00,31.6,28.2,30.05,ENE,65,5.0,8.0,87,0.00,-SN,,0.00,WeatherDisplay:10.37,2013-03-18 23:41:00,
2013-03-18 19:55:00,31.8,28.4,30.05,East,79,7.0,15.0,87,0.00,-SN,,0.00,WeatherDisplay:10.37,2013-03-18 23:55:00,
2013-03-18 20:00:00,31.8,28.7,30.05,ENE,68,3.0,11.0,88,0.00,-SN,,0.00,WeatherDisplay:10.37,2013-03-19 00:00:00,
2013-03-18 20:05:00,31.8,28.7,30.05,ENE,77,7.0,11.0,88,0.00,-SN,,0.00,WeatherDisplay:10.37,2013-03-19 00:05:00,
2013-03-18 20:10:00,31.8,28.7,30.04,East,94,5.0,14.0,88,0.00,-SN,,0.00,WeatherDisplay:10.37,2013-03-19 00:10:00,
2013-03-18 20:15:00,32.0,28.6,30.04,ENE,73,5.0,12.0,87,0.00,-SN,,0.00,WeatherDisplay:10.37,2013-03-19 00:15:00,
2013-03-18 20:20:00,32.0,28.6,30.04,ENE,65,5.0,9.0,87,0.00,-SN,,0.00,WeatherDisplay:10.37,2013-03-19 00:20:00,
2013-03-18 20:25:00,32.0,28.6,30.04,ENE,70,6.0,14.0,87,0.00,-SN,,0.00,WeatherDisplay:10.37,2013-03-19 00:25:00,
2013-03-18 20:30:00,32.0,28.6,30.03,ENE,68,6.0,14.0,87,0.00,-SN,,0.00,WeatherDisplay:10.37,2013-03-19 00:30:00,
2013-03-18 20:35:00,32.0,28.6,30.03,ENE,71,7.0,12.0,87,0.00,-SN,,0.00,WeatherDisplay:10.37,2013-03-19 00:35:00,
2013-03-18 20:40:00,32.0,28.8,30.04,NE,48,5.0,9.0,88,0.00,-SN,,0.00,WeatherDisplay:10.37,2013-03-19 00:40:00,
2013-03-18 20:45:00,32.0,28.8,30.03,ENE,57,5.0,12.0,88,0.00,-SN,,0.00,WeatherDisplay:10.37,2013-03-19 00:45:00,
2013-03-18 20:50:00,32.0,28.8,30.03,ENE,70,6.0,12.0,88,0.00,-SN,,0.00,WeatherDisplay:10.37,2013-03-19 00:50:00,
2013-03-18 20:55:00,32.0,28.8,30.02,ENE,72,7.0,11.0,88,0.00,-SN,,0.00,WeatherDisplay:10.37,2013-03-19 00:55:00,
2013-03-18 21:00:00,32.0,28.8,30.02,East,80,5.0,14.0,88,0.00,-SN,,0.00,WeatherDisplay:10.37,2013-03-19 01:00:00,
2013-03-18 21:05:00,32.0,28.8,30.02,ENE,72,6.0,13.0,88,0.00,-SN,,0.00,WeatherDisplay:10.37,2013-03-19 01:05:00,
2013-03-18 21:10:00,32.0,28.8,30.02,ENE,62,6.0,8.0,88,0.00,-SN,,0.00,WeatherDisplay:10.37,2013-03-19 01:10:00,
2013-03-18 21:15:00,32.0,28.9,30.01,NE,50,3.0,8.0,88,0.00,-RA,,0.00,WeatherDisplay:10.37,2013-03-19 01:15:00,
2013-03-18 21:20:00,32.2,29.0,30.01,NE,54,3.0,12.0,88,0.00,-RA,,0.00,WeatherDisplay:10.37,2013-03-19 01:20:00,
2013-03-18 21:25:00,32.2,29.0,30.01,ENE,62,3.0,10.0,88,0.00,-RA,,0.00,WeatherDisplay:10.37,2013-03-19 01:25:00,
2013-03-18 21:31:00,32.2,29.0,30.01,ENE,65,3.0,8.0,88,0.00,-RA,,0.00,WeatherDisplay:10.37,2013-03-19 01:31:00,
2013-03-18 21:36:00,32.4,29.2,30.01,ENE,61,5.0,10.0,88,0.00,-RA,,0.00,WeatherDisplay:10.37,2013-03-19 01:36:00,
2013-03-18 21:41:00,32.4,29.2,30.00,NE,44,5.0,11.0,88,0.00,-RA,,0.00,WeatherDisplay:10.37,2013-03-19 01:41:00,
2013-03-18 21:46:00,32.4,29.2,30.00,NE,49,3.0,13.0,88,0.00,-RA,,0.00,WeatherDisplay:10.37,2013-03-19 01:46:00,
2013-03-18 21:51:00,32.5,29.7,30.00,ENE,64,3.0,8.0,89,0.00,-RA,,0.00,WeatherDisplay:10.37,2013-03-19 01:51:00,
2013-03-18 22:00:00,32.5,29.7,30.00,NE,54,6.0,13.0,89,0.00,-RA,,0.00,WeatherDisplay:10.37,2013-03-19 02:00:00,
2013-03-18 22:05:00,32.5,29.7,30.00,NE,50,5.0,12.0,89,0.00,-RA,,0.00,WeatherDisplay:10.37,2013-03-19 02:05:00,
2013-03-18 22:10:00,32.7,29.8,29.99,NE,55,3.0,12.0,89,0.00,-RA,,0.00,WeatherDisplay:10.37,2013-03-19 02:10:00,
2013-03-18 22:15:00,32.7,29.8,29.99,NE,49,6.0,8.0,89,0.00,-RA,,0.00,WeatherDisplay:10.37,2013-03-19 02:15:00,
2013-03-18 22:20:00,32.7,29.8,29.99,NE,50,3.0,8.0,89,0.00,-RA,,0.00,WeatherDisplay:10.37,2013-03-19 02:20:00,
2013-03-18 22:25:00,32.7,29.8,29.99,ENE,62,5.0,13.0,89,0.00,-RA,,0.00,WeatherDisplay:10.37,2013-03-19 02:25:00,
2013-03-18 22:30:00,32.7,29.8,29.99,ENE,65,5.0,11.0,89,0.00,-RA,,0.00,WeatherDisplay:10.37,2013-03-19 02:30:00,
2013-03-18 22:40:00,32.7,29.8,29.98,ENE,65,7.0,12.0,89,0.00,-RA,,0.00,WeatherDisplay:10.37,2013-03-19 02:40:00,
2013-03-18 22:45:00,32.7,29.8,29.98,ENE,70,5.0,13.0,89,0.00,-RA,,0.00,WeatherDisplay:10.37,2013-03-19 02:45:00,
2013-03-18 22:50:00,32.7,29.8,29.98,NE,54,6.0,11.0,89,0.00,-RA,,0.00,WeatherDisplay:10.37,2013-03-19 02:50:00,
2013-03-18 22:55:00,32.7,29.8,29.97,NE,47,6.0,10.0,89,0.00,-RA,,0.00,WeatherDisplay:10.37,2013-03-19 02:55:00,
2013-03-18 23:00:00,32.8,29.9,29.98,NE,46,7.0,12.0,89,0.00,-RA,,0.00,WeatherDisplay:10.37,2013-03-19 03:00:00,
2013-03-18 23:05:00,32.9,30.0,29.97,NE,43,5.0,12.0,89,0.00,-RA,,0.00,WeatherDisplay:10.37,2013-03-19 03:05:00,
2013-03-18 23:10:00,32.9,30.3,29.96,NE,49,8.0,11.0,90,0.00,-RA,,0.00,WeatherDisplay:10.37,2013-03-19 03:10:00,
2013-03-18 23:20:00,32.9,30.3,29.95,ENE,64,6.0,12.0,90,0.00,-RA,,0.00,WeatherDisplay:10.37,2013-03-19 03:20:00,
2013-03-18 23:30:00,32.9,30.3,29.94,ENE,62,5.0,10.0,90,0.00,-RA,,0.00,WeatherDisplay:10.37,2013-03-19 03:30:00,
2013-03-18 23:35:00,32.9,30.3,29.94,ENE,63,5.0,9.0,90,0.00,-RA,,0.00,WeatherDisplay:10.37,2013-03-19 03:35:00,
2013-03-18 23:40:00,32.9,30.3,29.94,ENE,74,5.0,10.0,90,0.00,-RA,,0.00,WeatherDisplay:10.37,2013-03-19 03:40:00,
2013-03-18 23:45:00,32.9,30.3,29.93,East,82,3.0,10.0,90,0.00,-RA,,0.00,WeatherDisplay:10.37,2013-03-19 03:45:00,
2013-03-18 23:50:00,32.9,30.3,29.92,East,82,6.0,7.0,90,0.00,-RA,,0.00,WeatherDisplay:10.37,2013-03-19 03:50:00,
2013-03-18 23:55:00,33.1,30.5,29.92,ENE,68,7.0,14.0,90,0.00,-RA,,0.00,WeatherDisplay:10.37,2013-03-19 03:55:00,